This demonstration page uses our WeatherBlox Daily Observations layout. Learn more.

Left ArrowRight Arrow

Hourly Observations for October 5, 2021

Temp ( °F °C ) Dew Point ( °F °C ) Humidity (%) Winds ( mph kmh ) Pressure ( in mb ) Visibility ( mi km ) Precip ( " mm )
12:15 am 00:15 Clear 55 12.8 40 4.6 58 58 E 6 9 30.17 1022 10 16 0.00 0.00
12:35 am 00:35 Clear 54 12.1 41 4.9 62 62 Calm 30.17 1022 10 16 0.00 0.00
12:55 am 00:55 Clear 55 12.8 40 4.4 57 57 Calm 30.17 1022 7 11 0.00 0.00
1:15 am 01:15 Clear 53 11.6 42 5.5 66 66 Calm 30.19 1022 10 16 0.00 0.00
1:35 am 01:35 Clear 51 10.7 42 5.4 70 70 Calm 30.20 1023 10 16 0.00 0.00
1:55 am 01:55 Clear 50 9.9 43 6.1 77 77 Calm 30.20 1023 10 16 0.00 0.00
2:15 am 02:15 Clear 49 9.2 42 5.5 78 78 Calm 30.21 1023 10 16 0.00 0.00
2:35 am 02:35 Clear 47 8.5 41 5 79 79 Calm 30.22 1023 10 16 0.00 0.00
2:55 am 02:55 Clear 47 8.2 42 5.5 83 83 Calm 30.22 1023 10 16 0.00 0.00
3:15 am 03:15 Clear 47 8.4 42 5.8 84 84 Calm 30.22 1023 10 16 0.00 0.00
3:35 am 03:35 Clear 47 8.4 42 5.4 82 82 NW 3 6 30.22 1023 10 16 0.00 0.00
3:55 am 03:55 Clear 46 7.9 41 4.8 81 81 Calm 30.22 1023 10 16 0.00 0.00
4:15 am 04:15 Clear 46 7.9 40 4.5 79 79 Calm 30.22 1023 10 16 0.00 0.00
4:35 am 04:35 Clear 46 7.7 40 4.6 81 81 Calm 30.22 1023 10 16 0.00 0.00
4:55 am 04:55 Clear 44 6.8 41 4.8 87 87 Calm 30.23 1024 10 16 0.00 0.00
5:15 am 05:15 Clear 45 7.2 42 5.3 88 88 Calm 30.23 1024 10 16 0.00 0.00
5:35 am 05:35 Clear 45 7.3 41 5.1 86 86 NW 3 6 30.23 1024 10 16 0.00 0.00
5:55 am 05:55 Clear 45 7.1 40 4.5 84 84 Calm 30.23 1024 10 16 0.00 0.00
6:15 am 06:15 Clear 44 6.9 40 4.6 85 85 Calm 30.24 1024 10 16 0.00 0.00
6:35 am 06:35 Clear 44 6.7 41 4.8 88 88 Calm 30.24 1024 10 16 0.00 0.00
6:55 am 06:55 Clear 45 7 41 5 87 87 Calm 30.24 1024 10 16 0.00 0.00
7:15 am 07:15 Clear 45 7 41 4.8 86 86 Calm 30.25 1024 10 16 0.00 0.00
7:35 am 07:35 Clear 45 7 41 5 87 87 NW 3 6 30.25 1024 10 16 0.00 0.00
7:55 am 07:55 Sunny 45 7.1 41 5 87 87 Calm 30.26 1025 10 16 0.00 0.00
8:35 am 08:35 Sunny 48 8.9 44 6.8 87 87 Calm 30.24 1024 10 16 0.00 0.00
8:55 am 08:55 Sunny 52 10.9 45 7.4 79 79 NW 3 6 30.23 1024 10 16 0.00 0.00
9:15 am 09:15 Sunny 55 12.5 47 8.5 77 77 Calm 30.23 1024 10 16 0.00 0.00
9:35 am 09:35 Sunny 57 13.7 48 8.9 73 73 NW 3 6 30.22 1023 10 16 0.00 0.00
9:55 am 09:55 Sunny 59 15.2 49 9.2 68 68 NW 5 7 30.22 1023 10 16 0.00 0.00
10:15 am 10:15 Sunny 62 16.6 47 8.6 59 59 Calm 30.21 1023 10 16 0.00 0.00
10:35 am 10:35 Sunny 65 18.1 47 8.5 54 54 Calm 30.18 1022 10 16 0.00 0.00
10:55 am 10:55 Sunny 68 19.8 47 8.5 48 48 SE 3 6 30.18 1022 10 16 0.00 0.00
11:15 am 11:15 Sunny 69 20.4 47 8.4 46 46 ESE 5 7 30.17 1022 10 16 0.00 0.00
11:35 am 11:35 Sunny 70 21 47 8.4 45 45 SE 3 6 30.17 1022 10 16 0.00 0.00
11:55 am 11:55 Sunny 71 21.7 47 8.6 43 43 E 5 7 30.15 1021 10 16 0.00 0.00
12:15 pm 12:15 Sunny 72 22.3 46 7.7 39 39 SE 5 7 30.14 1021 10 16 0.00 0.00
12:35 pm 12:35 Sunny 73 22.9 45 7 36 36 ESE 5 7 30.13 1020 10 16 0.00 0.00
12:55 pm 12:55 Sunny 74 23.4 45 7 35 35 E 5 7 30.12 1020 10 16 0.00 0.00
1:20 pm 13:20 Sunny 75 23.8 44 6.4 33 33 ESE 6 9 30.11 1019 10 16 0.00 0.00
1:35 pm 13:35 Sunny 75 24.1 44 6.6 33 33 ESE 5 7 30.09 1019 10 16 0.00 0.00
1:55 pm 13:55 Sunny 76 24.3 43 5.9 31 31 ENE 6 9 30.09 1019 10 16 0.00 0.00
2:15 pm 14:15 Sunny 76 24.5 42 5.6 30 30 E 7 11 30.08 1019 10 16 0.00 0.00
2:35 pm 14:35 Sunny 77 25.1 41 5.2 28 28 ESE 8 13 30.07 1018 10 16 0.00 0.00
2:55 pm 14:55 Sunny 77 25.1 42 5.5 28 28 E 8 13 30.05 1017 10 16 0.00 0.00
3:15 pm 15:15 Sunny 78 25.6 42 5.6 28 28 E 8 13 30.04 1017 10 16 0.00 0.00
3:35 pm 15:35 Sunny 78 25.5 42 5.5 28 28 ESE 10 17 30.03 1017 10 16 0.00 0.00
3:55 pm 15:55 Sunny 78 25.6 41 4.9 26 26 SE 8 13 30.03 1017 10 16 0.00 0.00
4:15 pm 16:15 Sunny 78 25.6 42 5.5 28 28 ESE 12 19 30.03 1017 10 16 0.00 0.00
4:35 pm 16:35 Sunny 78 25.6 40 4.6 26 26 ESE 9 15 30.03 1017 10 16 0.00 0.00
4:55 pm 16:55 Sunny 78 25.7 39 4 25 25 E 12 19 30.03 1017 10 16 0.00 0.00
5:15 pm 17:15 Sunny 78 25.7 39 3.9 24 24 SE 8 13 30.03 1017 10 16 0.00 0.00
5:35 pm 17:35 Sunny 78 25.5 40 4.3 25 25 SE 9 15 30.02 1017 10 16 0.00 0.00
5:55 pm 17:55 Sunny 77 25 39 4.1 26 26 SE 8 13 30.03 1017 10 16 0.00 0.00
6:15 pm 18:15 Sunny 76 24.3 40 4.6 28 28 SE 9 15 30.03 1017 10 16 0.00 0.00
6:35 pm 18:35 Sunny 74 23.1 42 5.3 32 32 SSE 5 7 30.04 1017 10 16 0.00 0.00
6:55 pm 18:55 Sunny 71 21.6 41 5 34 34 SSE 3 6 30.05 1018 10 16 0.00 0.00
7:15 pm 19:15 Clear 69 20.4 41 4.8 36 36 SSE 5 7 30.07 1018 10 16 0.00 0.00
7:35 pm 19:35 Clear 66 18.9 41 5.2 41 41 SSE 3 6 30.09 1019 10 16 0.00 0.00
7:55 pm 19:55 Clear 63 17.3 42 5.6 46 46 Calm 30.10 1019 10 16 0.00 0.00
8:15 pm 20:15 Clear 61 16.1 43 6 51 51 Calm 30.11 1020 10 16 0.00 0.00
8:35 pm 20:35 Clear 58 14.5 43 6 57 57 Calm 30.12 1020 10 16 0.00 0.00
8:55 pm 20:55 Clear 57 13.7 43 6.2 61 61 ESE 5 7 30.13 1020 10 16 0.00 0.00
9:15 pm 21:15 Clear 57 13.7 44 6.6 62 62 Calm 30.14 1021 10 16 0.00 0.00
9:35 pm 21:35 Clear 58 14.6 43 6.2 57 57 ESE 3 6 30.13 1020 10 16 0.00 0.00
9:55 pm 21:55 Clear 58 14.2 42 5.8 57 57 Calm 30.14 1021 10 16 0.00 0.00
10:15 pm 22:15 Clear 55 13 44 6.4 64 64 Calm 30.16 1021 10 16 0.00 0.00
10:35 pm 22:35 Clear 56 13.4 44 6.5 63 63 Calm 30.15 1021 10 16 0.00 0.00
10:55 pm 22:55 Clear 55 12.8 43 6.2 64 64 SE 5 7 30.16 1021 10 16 0.00 0.00
11:15 pm 23:15 Clear 54 12.1 43 5.9 66 66 SE 5 7 30.16 1021 10 16 0.00 0.00
11:35 pm 23:35 Clear 53 11.6 43 6 69 69 SE 7 11 30.17 1022 10 16 0.00 0.00
11:55 pm 23:55 Clear 55 12.5 44 6.5 67 67 SE 8 13 30.16 1021 10 16 0.00 0.00

Powered by AerisWeather